TimeCDT,TemperatureF,Dew PointF,Humidity,Sea Level PressureIn,VisibilityMPH,Wind Direction,Wind SpeedMPH,Gust SpeedMPH,PrecipitationIn,Events,Conditions,WindDirDegrees,DateUTC
12:03 AM,68.0,68.0,100,30.16,2.5,East,5.8,-,N/A,Rain,Light Rain,80,2013-09-17 05:03:00
12:09 AM,68.0,68.0,100,30.16,2.5,East,6.9,-,N/A,,Overcast,80,2013-09-17 05:09:00
12:19 AM,68.0,68.0,100,30.16,2.0,East,4.6,-,N/A,,Overcast,100,2013-09-17 05:19:00
12:24 AM,68.0,68.0,100,30.16,2.5,East,5.8,-,N/A,,Overcast,90,2013-09-17 05:24:00
12:34 AM,68.0,68.0,100,30.17,3.0,ESE,5.8,-,N/A,,Overcast,110,2013-09-17 05:34:00
12:47 AM,68.0,68.0,100,30.16,3.0,East,10.4,-,N/A,Rain,Light Rain,100,2013-09-17 05:47:00
12:52 AM,68.0,68.0,100,30.16,2.5,ENE,8.1,-,N/A,Rain,Light Rain,70,2013-09-17 05:52:00
12:55 AM,68.0,68.0,100,30.15,3.0,ENE,10.4,-,N/A,Rain-Thunderstorm,Light Thunderstorms and Rain,70,2013-09-17 05:55:00
12:58 AM,68.0,68.0,100,30.14,3.0,ENE,4.6,-,0.01,Rain-Thunderstorm,Light Thunderstorms and Rain,60,2013-09-17 05:58:00
1:03 AM,68.0,68.0,100,30.16,5.0,NE,6.9,-,N/A,Rain-Thunderstorm,Light Thunderstorms and Rain,50,2013-09-17 06:03:00
1:15 AM,68.0,68.0,100,30.16,5.0,ENE,4.6,-,N/A,Rain-Thunderstorm,Light Rain,70,2013-09-17 06:15:00
1:20 AM,68.0,68.0,100,30.16,6.0,East,4.6,-,N/A,Rain,Light Rain,80,2013-09-17 06:20:00
1:25 AM,68.0,68.0,100,30.16,7.0,East,6.9,-,N/A,Rain,Light Rain,80,2013-09-17 06:25:00
1:30 AM,68.0,68.0,100,30.16,6.0,East,8.1,-,N/A,Rain,Light Rain,90,2013-09-17 06:30:00
1:35 AM,68.0,68.0,100,30.16,5.0,East,8.1,-,N/A,Rain,Light Rain,100,2013-09-17 06:35:00
1:45 AM,68.0,68.0,100,30.16,7.0,East,8.1,-,N/A,Rain,Light Rain,100,2013-09-17 06:45:00
1:50 AM,68.0,68.0,100,30.15,7.0,ESE,9.2,-,N/A,Rain,Light Rain,110,2013-09-17 06:50:00
1:58 AM,68.0,68.0,100,30.13,8.0,East,8.1,-,0.06,Rain,Light Rain,100,2013-09-17 06:58:00
2:03 AM,68.0,68.0,100,30.15,8.0,East,5.8,-,N/A,Rain,Light Rain,80,2013-09-17 07:03:00
2:13 AM,68.0,68.0,100,30.14,7.0,East,6.9,-,N/A,Rain,Light Rain,90,2013-09-17 07:13:00
2:21 AM,68.0,68.0,100,30.14,8.0,East,6.9,-,N/A,,Overcast,90,2013-09-17 07:21:00
2:22 AM,68.0,68.0,100,30.14,7.0,East,6.9,-,N/A,,Light Drizzle,90,2013-09-17 07:22:00
2:27 AM,68.0,68.0,100,30.14,7.0,East,6.9,-,N/A,,Light Drizzle,90,2013-09-17 07:27:00
2:41 AM,66.2,66.2,100,30.12,6.0,East,8.1,-,N/A,,Overcast,100,2013-09-17 07:41:00
2:51 AM,66.2,66.2,100,30.12,4.0,East,9.2,-,N/A,,Overcast,90,2013-09-17 07:51:00
2:56 AM,66.2,66.2,100,30.12,4.0,ESE,9.2,-,N/A,,Overcast,110,2013-09-17 07:56:00
2:58 AM,66.7,66.7,100,30.11,4.0,ESE,8.1,-,0.01,,Overcast,120,2013-09-17 07:58:00
3:33 AM,66.2,66.2,100,30.11,4.0,ESE,6.9,-,N/A,,Overcast,120,2013-09-17 08:33:00
3:38 AM,66.2,66.2,100,30.11,5.0,ESE,9.2,-,N/A,,Overcast,110,2013-09-17 08:38:00
3:53 AM,66.2,66.2,100,30.11,7.0,SE,10.4,-,N/A,,Overcast,130,2013-09-17 08:53:00
3:58 AM,66.4,66.4,100,30.09,7.0,SE,8.1,-,N/A,,Overcast,130,2013-09-17 08:58:00
4:08 AM,66.2,66.2,100,30.12,7.0,SE,6.9,-,N/A,,Overcast,130,2013-09-17 09:08:00
4:33 AM,66.2,66.2,100,30.12,9.0,ESE,9.2,-,N/A,,Overcast,120,2013-09-17 09:33:00
4:38 AM,66.2,66.2,100,30.12,10.0,SE,8.1,-,N/A,,Overcast,130,2013-09-17 09:38:00
4:43 AM,66.2,66.2,100,30.12,10.0,ESE,8.1,-,N/A,,Overcast,120,2013-09-17 09:43:00
4:58 AM,66.4,66.4,100,30.10,10.0,SE,5.8,-,N/A,,Overcast,130,2013-09-17 09:58:00
5:03 AM,66.2,66.2,100,30.12,9.0,ESE,6.9,-,N/A,,Overcast,120,2013-09-17 10:03:00
5:58 AM,66.2,66.2,100,30.08,9.0,ESE,5.8,-,N/A,,Overcast,110,2013-09-17 10:58:00
6:03 AM,66.2,66.2,100,30.10,9.0,ESE,5.8,-,N/A,,Overcast,110,2013-09-17 11:03:00
6:23 AM,66.2,66.2,100,30.10,10.0,ESE,6.9,-,N/A,,Overcast,110,2013-09-17 11:23:00
6:33 AM,66.2,66.2,100,30.11,10.0,ESE,5.8,-,N/A,,Overcast,110,2013-09-17 11:33:00
6:38 AM,66.2,66.2,100,30.11,10.0,ESE,5.8,-,N/A,,Overcast,110,2013-09-17 11:38:00
6:58 AM,66.0,66.0,100,30.10,10.0,ESE,4.6,-,N/A,,Overcast,110,2013-09-17 11:58:00
7:58 AM,66.2,66.2,100,30.11,7.0,East,5.8,-,N/A,,Overcast,100,2013-09-17 12:58:00
8:58 AM,67.5,67.5,100,30.10,8.0,ESE,8.1,-,N/A,,Overcast,120,2013-09-17 13:58:00
9:18 AM,68.0,68.0,100,30.12,8.0,SE,8.1,-,N/A,,Overcast,130,2013-09-17 14:18:00
9:58 AM,69.1,69.1,100,30.10,9.0,SE,9.2,-,N/A,,Overcast,130,2013-09-17 14:58:00
10:03 AM,69.8,69.8,100,30.11,9.0,SE,9.2,-,N/A,,Overcast,140,2013-09-17 15:03:00
10:23 AM,69.8,69.8,100,30.11,10.0,SE,10.4,-,N/A,,Overcast,130,2013-09-17 15:23:00
10:43 AM,69.8,69.8,100,30.11,10.0,SE,10.4,-,N/A,,Mostly Cloudy,140,2013-09-17 15:43:00
10:53 AM,71.6,71.6,100,30.11,10.0,SSE,13.8,-,N/A,,Mostly Cloudy,150,2013-09-17 15:53:00
10:58 AM,70.9,70.9,100,30.09,10.0,SSE,11.5,-,N/A,,Overcast,150,2013-09-17 15:58:00
11:53 AM,75.2,71.6,89,30.10,10.0,South,12.7,-,N/A,,Mostly Cloudy,170,2013-09-17 16:53:00
11:58 AM,74.3,71.4,91,30.08,10.0,SSE,13.8,-,N/A,,Scattered Clouds,150,2013-09-17 16:58:00
12:58 PM,77.5,70.7,79,30.06,10.0,SSE,16.1,-,N/A,,Partly Cloudy,150,2013-09-17 17:58:00
1:58 PM,79.5,70.7,74,30.03,10.0,SSE,15.0,-,N/A,,Clear,160,2013-09-17 18:58:00
2:58 PM,81.1,71.2,72,30.00,10.0,SSE,13.8,-,N/A,,Clear,160,2013-09-17 19:58:00
3:58 PM,83.1,69.4,63,29.96,10.0,SSE,17.3,24.2,N/A,,Clear,160,2013-09-17 20:58:00
4:58 PM,83.5,69.8,63,29.94,10.0,SE,17.3,-,N/A,,Clear,140,2013-09-17 21:58:00
5:58 PM,82.2,69.3,65,29.93,10.0,SSE,13.8,-,N/A,,Clear,150,2013-09-17 22:58:00
6:58 PM,79.5,70.5,74,29.93,10.0,SE,15.0,-,N/A,,Clear,140,2013-09-17 23:58:00
7:58 PM,75.6,71.1,86,29.93,10.0,SE,12.7,-,N/A,,Clear,140,2013-09-18 00:58:00
8:58 PM,73.6,72.3,96,29.94,10.0,SE,13.8,-,N/A,,Clear,130,2013-09-18 01:58:00
9:58 PM,72.1,71.4,98,29.96,10.0,SE,11.5,-,N/A,,Clear,140,2013-09-18 02:58:00
10:58 PM,71.6,70.9,98,29.96,10.0,SE,15.0,-,N/A,,Clear,140,2013-09-18 03:58:00
11:58 PM,71.2,71.2,100,29.95,10.0,SE,12.7,-,N/A,,Clear,140,2013-09-18 04:58:00